Wind_Speed
111 112 113 114 116 118 119 120 121 122 123 123 122 122 120 119 118 117 116 116 115 114 114 113 112 112 111 111 111 111 111 111 111 111 110 110 110 109 109 109 109 109 109 108 108 107 106 105 105 105 104 104 104 105 105 105 105 105 105 105 106 106 106 106 106 106 106 106 105 105 105 105 106 106 106 107 107 107 107 108 108 109 109 110 111 112
115 116 117 118 119 120 121 122 122 122 122 122 120 119 117 115 114 113 112 111 110 110 109 109 108 107 107 106 106 106 106 106 106 106 105 105 105 104 104 104 104 103 103 103 102 101 101 100 100 100 100 101 101 101 101 101 101 101 101 102 102 102 102 102 102 102 102 102 101 101 101 101 101 102 102 102 103 103 103 103 103 104 104 105 106 107
119 120 121 121 122 122 122 122 121 120 120 118 116 114 112 111 110 108 107 107 106 105 105 104 104 103 103 102 102 101 101 101 101 101 101 101 100 100 100 99 99 99 98 98 97 97 97 97 97 97 97 97 98 98 98 98 98 98 98 98 98 98 98 98 98 98 98 98 98 98 98 98 98 98 99 99 99 99 99 99 99 100 100 101 102 103
122 123 123 123 122 122 121 120 119 117 115 113 112 110 108 107 106 105 104 103 103 102 101 101 100 99 99 98 98 98 97 97 97 97 97 96 96 96 95 95 95 95 94 94 94 94 94 94 94 94 94 94 94 94 94 94 94 94 94 95 95 95 95 95 95 95 96 96 95 95 95 95 95 95 96 96 96 96 96 96 96 97 97 98 98 99
124 124 123 123 122 120 118 117 115 113 111 109 107 106 105 104 103 102 101 100 99 99 98 97 97 96 96 95 94 94 94 93 93 93 93 93 92 92 92 92 91 91 91 91 91 91 91 91 91 91 91 91 91 91 91 91 91 91 91 91 91 92 92 92 92 93 93 93 93 93 93 93 93 92 93 93 93 93 93 93 93 94 94 95 95 96
124 123 122 120 119 117 115 113 111 109 107 105 104 103 102 101 100 99 99 98 97 96 95 94 93 93 92 92 91 90 90 90 89 89 89 89 89 88 88 88 88 88 88 88 88 88 88 88 88 88 88 88 88 87 87 87 87 88 88 88 88 89 89 89 89 90 90 90 90 90 90 90 90 90 90 90 90 90 90 91 91 91 91 92 92 93
123 121 119 117 115 113 111 109 107 105 104 103 101 100 99 99 98 97 96 95 94 93 92 91 91 90 89 88 87 87 86 86 86 86 86 86 85 85 85 85 85 85 85 85 85 85 85 85 85 85 84 84 84 84 84 84 84 85 85 85 86 86 86 86 87 87 87 87 87 87 87 87 87 87 87 87 87 88 88 88 88 88 89 89 90 90
120 118 116 114 112 110 108 106 104 102 101 100 99 98 97 96 95 94 93 92 91 90 89 88 88 87 86 85 84 84 83 83 83 83 83 83 83 83 82 82 82 82 82 82 82 82 82 81 81 81 81 81 81 81 81 81 82 82 82 83 83 83 83 84 84 84 84 84 85 85 85 85 85 85 85 85 85 85 85 86 86 86 86 87 87 88
117 115 113 111 109 107 105 103 102 100 99 98 97 96 95 93 92 91 90 90 89 88 87 85 85 84 83 83 82 81 81 81 81 81 80 80 80 80 79 79 79 79 79 79 78 78 78 78 78 78 78 78 78 78 78 79 79 79 80 80 80 81 81 81 82 82 82 82 82 82 82 82 82 82 82 82 83 83 83 83 84 84 84 84 85 85
113 112 110 108 106 104 103 101 100 98 97 96 95 93 92 90 89 88 87 87 86 86 84 83 82 81 80 80 79 79 79 79 78 78 78 77 77 77 76 76 76 76 76 75 75 75 75 75 75 75 75 75 75 76 76 76 76 77 77 77 78 78 78 79 79 79 80 80 80 80 80 80 80 80 80 80 81 81 81 82 82 82 82 82 83 83
110 109 107 106 104 102 100 99 97 96 95 93 92 91 90 88 86 85 84 84 84 83 82 81 79 78 77 77 77 77 77 76 76 75 75 74 74 73 73 73 73 73 73 73 73 73 73 72 72 72 73 73 73 73 73 74 74 74 75 75 75 76 76 77 77 77 77 77 77 77 78 77 78 78 78 78 79 79 79 80 80 80 81 81 81 81
108 106 105 103 102 100 98 97 95 94 92 91 90 88 87 86 84 83 82 81 81 80 80 79 78 76 75 75 75 75 74 74 73 72 72 71 70 70 70 70 70 70 70 70 70 70 70 70 70 70 70 70 70 70 71 71 71 72 72 73 73 73 74 74 74 75 75 75 75 75 75 75 75 76 76 76 77 77 78 78 78 79 79 79 79 80
105 104 102 101 99 98 96 94 92 91 90 88 87 86 85 83 82 81 80 79 79 78 77 76 75 74 73 72 72 72 72 71 71 70 69 68 67 67 67 67 68 68 68 68 68 68 68 67 67 68 68 68 68 68 68 69 69 69 70 70 70 71 71 72 72 72 72 73 73 73 73 73 73 73 74 74 74 75 76 76 77 77 77 78 78 78
103 101 99 98 96 95 93 91 90 88 87 86 85 83 82 81 80 79 78 78 77 76 75 74 73 72 71 70 70 70 69 69 68 67 66 65 65 64 64 65 65 65 65 65 65 65 65 65 65 65 65 65 65 66 66 66 66 67 67 68 68 68 69 69 69 70 70 70 70 70 70 70 71 71 71 72 72 73 73 74 75 75 76 76 77 77
100 98 97 95 94 92 91 89 87 86 85 84 83 81 80 79 78 77 76 76 75 74 73 72 70 69 68 68 67 67 67 66 65 64 63 63 62 62 62 62 62 62 62 62 62 62 63 62 62 62 62 63 63 63 63 64 64 64 65 65 65 66 66 67 67 67 67 68 68 68 68 68 68 68 69 69 70 70 71 72 72 73 74 74 75 75
97 96 94 93 92 90 89 87 85 84 83 82 81 80 78 77 76 75 74 73 72 71 70 69 68 67 66 65 64 64 64 63 63 62 61 60 60 60 59 59 59 59 59 59 60 60 60 60 60 60 60 60 60 61 61 61 61 61 62 62 62 63 63 64 64 64 65 65 65 65 65 65 65 66 66 66 67 67 68 69 70 70 71 72 73 73
95 94 92 91 89 88 87 85 84 82 81 81 79 78 77 76 74 73 72 71 70 69 68 67 66 65 64 63 62 61 61 60 60 59 58 58 58 58 57 57 57 57 57 57 57 57 57 57 58 58 58 58 58 58 58 58 59 59 59 59 60 60 60 61 61 61 62 62 62 62 62 63 63 63 63 64 64 65 65 66 67 68 69 70 70 71
93 92 90 89 88 86 85 84 82 81 80 79 78 77 75 74 73 71 70 69 68 67 66 65 64 63 62 61 60 59 58 57 57 56 56 55 56 56 56 55 55 55 55 55 55 55 55 55 55 55 55 56 56 56 56 56 56 56 56 56 57 57 57 58 58 58 59 59 59 59 60 60 60 61 61 61 62 62 63 64 64 65 66 67 68 69
92 90 89 87 86 85 84 82 81 80 78 77 76 75 74 72 71 69 68 67 66 65 64 63 62 61 60 59 58 58 56 55 54 54 53 53 53 54 54 53 53 53 53 53 53 53 53 53 53 53 53 53 53 53 53 53 53 53 53 54 54 54 55 55 55 56 56 56 57 57 57 58 58 58 59 59 60 60 61 61 62 63 64 65 66 66
90 89 88 86 85 84 82 81 80 78 77 75 74 73 72 70 69 67 66 64 63 62 61 61 60 59 58 57 57 56 55 53 52 52 51 51 51 51 51 51 51 51 50 50 50 50 50 50 51 51 51 51 51 51 51 51 51 51 51 51 51 52 52 52 53 53 53 54 54 55 55 55 56 56 57 57 57 58 59 59 60 61 62 62 63 64
88 87 86 84 83 82 81 80 78 77 75 74 72 71 70 68 67 65 64 62 61 60 59 58 58 57 56 55 55 54 53 52 51 50 49 49 49 49 49 49 49 48 48 48 48 48 48 48 48 48 48 48 49 49 49 48 48 48 48 48 49 49 49 50 50 50 51 51 52 52 53 53 53 54 54 55 56 56 57 57 58 59 59 60 61 62
87 86 84 83 82 81 79 78 77 75 73 72 70 69 67 66 65 63 62 60 59 58 57 56 56 55 54 53 53 52 51 50 49 48 48 47 47 47 47 47 46 46 46 46 46 46 46 46 46 46 46 46 46 46 46 46 46 46 46 46 46 47 47 47 47 48 48 49 49 50 50 51 51 52 52 53 53 54 55 55 56 57 57 58 59 60
85 84 83 82 80 79 78 76 75 73 71 70 68 66 65 64 63 61 60 59 57 56 55 54 53 53 52 51 51 50 49 48 47 46 46 45 45 45 45 44 44 44 43 43 43 43 44 44 44 44 44 43 43 44 43 44 44 44 44 44 44 44 44 44 45 45 46 46 47 47 48 48 49 50 50 51 51 52 53 53 54 55 56 56 57 58
83 82 81 80 79 77 76 74 73 71 69 68 66 64 63 62 60 59 58 57 55 54 53 52 51 50 50 49 48 48 47 46 45 44 44 43 43 43 43 42 42 42 41 41 41 41 41 42 42 41 41 41 41 41 41 41 41 41 41 41 41 42 42 42 42 43 43 44 44 45 45 46 47 47 48 49 49 50 51 52 52 53 54 54 55 56
82 80 79 78 77 75 74 72 70 69 67 66 64 62 61 60 58 57 56 54 53 52 51 50 49 48 47 46 46 46 45 44 43 42 41 41 41 41 41 40 40 39 39 39 39 39 39 40 40 39 39 38 38 38 38 38 38 38 39 39 39 39 39 40 40 40 41 41 42 42 43 44 45 45 46 47 48 48 49 50 50 51 52 52 53 54
80 78 77 76 74 73 71 69 68 66 65 63 62 60 59 58 56 55 54 52 51 50 49 48 47 46 45 44 44 44 43 42 41 40 39 39 39 39 39 38 38 38 37 37 37 37 37 38 38 37 36 36 36 36 36 36 36 36 36 36 37 37 37 37 38 38 39 39 40 40 41 42 43 44 44 45 46 47 47 48 48 49 50 50 51 52
78 76 75 73 72 70 68 67 65 64 62 61 60 58 57 55 54 53 52 51 49 48 47 46 45 44 43 42 42 41 41 41 40 39 38 37 37 37 37 36 36 36 36 35 35 35 35 36 36 35 34 34 34 33 34 34 34 34 34 34 34 35 35 35 36 36 37 37 38 39 39 40 41 42 43 44 44 45 46 46 47 47 48 49 49 50
76 74 72 71 69 67 66 64 63 61 60 59 57 56 55 53 52 51 50 49 48 46 45 44 43 42 41 40 40 40 39 39 38 38 37 36 35 35 35 34 34 34 34 34 33 33 33 34 34 33 32 32 31 31 32 32 32 32 32 32 32 33 33 34 34 35 35 36 36 37 38 39 40 41 41 42 43 43 44 44 45 45 46 47 47 48
73 72 70 68 66 65 63 62 60 59 58 57 55 54 53 51 50 49 48 47 46 45 44 43 42 41 40 39 39 38 37 37 37 36 35 34 34 33 33 33 33 33 33 33 33 32 32 32 32 32 31 30 29 30 30 30 30 30 30 30 30 31 31 32 32 33 33 34 35 36 36 37 38 39 40 41 41 42 42 43 43 44 44 45 45 46
71 69 67 65 64 62 61 60 58 57 56 54 53 52 50 49 48 47 46 45 44 43 42 41 40 39 38 38 37 37 36 36 35 35 34 33 33 33 32 31 31 31 31 32 32 31 31 30 30 30 29 28 28 28 28 28 28 28 28 28 29 29 30 30 31 31 31 32 33 34 35 36 37 38 38 39 40 40 40 41 41 42 43 43 43 44
68 67 65 63 61 60 59 57 56 55 53 52 51 49 48 47 46 45 44 43 42 41 40 39 39 38 37 36 35 35 35 35 34 34 33 33 32 32 31 31 30 30 30 31 31 31 30 29 29 28 28 27 27 26 26 26 26 26 26 27 27 28 28 28 29 29 30 30 31 32 33 34 35 36 36 37 38 38 38 39 40 40 41 41 41 42
66 64 62 61 59 58 57 55 54 53 51 50 48 47 46 45 44 43 43 42 41 40 39 38 37 37 35 34 34 33 33 34 34 33 33 32 32 32 31 31 30 30 29 29 30 30 29 28 27 27 26 26 25 25 24 24 24 25 25 25 26 26 26 26 27 27 28 29 30 31 32 32 33 34 34 35 35 36 37 37 38 38 39 39 39 40
63 62 60 59 57 56 55 53 52 50 49 48 47 45 44 43 42 42 41 40 39 38 38 37 37 36 35 34 33 32 32 32 32 32 32 32 32 32 31 30 30 29 28 28 28 28 28 27 26 25 25 24 24 23 23 23 23 23 23 24 24 24 24 24 25 25 26 27 28 29 30 30 31 31 32 33 33 34 34 35 35 36 36 37 37 37
61 59 58 57 55 54 53 51 50 49 47 46 45 44 43 42 41 40 39 38 37 37 36 36 36 35 35 34 33 32 32 32 32 32 32 32 32 31 31 30 29 28 28 27 27 27 26 26 25 24 23 23 22 22 21 21 21 22 22 22 22 22 22 22 23 24 25 25 26 27 27 28 28 29 30 30 31 31 32 33 33 34 34 35 35 35
58 57 56 55 53 52 51 49 48 47 45 44 43 42 41 40 39 39 38 37 36 36 35 35 35 34 34 34 33 33 33 32 32 31 31 32 31 31 30 29 28 28 27 26 26 26 25 25 24 23 22 21 21 20 20 20 20 20 20 20 20 20 20 21 21 22 23 24 24 25 25 26 26 27 27 28 29 29 30 31 31 31 32 32 32 33
56 55 54 53 51 50 49 47 46 45 44 43 42 41 40 39 38 38 37 36 35 35 34 34 34 34 33 33 33 33 33 33 32 32 32 32 31 31 30 29 28 27 26 26 25 25 24 24 23 22 21 20 19 19 18 18 18 18 19 19 19 19 19 20 20 21 21 22 23 23 24 24 24 25 26 26 27 27 28 28 29 29 29 30 30 30
54 53 52 51 49 48 47 46 45 43 42 41 40 39 38 38 37 37 36 35 35 34 33 33 33 33 33 33 33 33 33 33 32 32 32 32 31 31 30 29 28 27 26 25 25 24 23 23 22 21 20 19 18 18 17 17 17 17 17 17 17 17 18 18 19 20 20 20 21 21 22 22 23 23 24 24 25 26 26 26 27 27 27 27 28 28
52 51 50 49 48 46 45 44 43 42 41 40 39 38 37 37 36 36 35 35 35 34 33 33 33 33 33 32 32 32 32 32 32 32 32 32 32 31 30 29 27 26 26 25 24 23 23 22 21 20 19 18 17 16 16 16 15 15 16 16 16 16 17 17 18 18 19 19 20 20 20 21 21 21 22 23 23 24 24 24 24 24 25 25 25 26
50 49 48 47 46 45 44 43 42 41 40 39 38 37 36 35 35 35 34 34 34 34 33 33 32 32 32 32 32 32 32 32 32 32 32 32 31 31 30 29 27 26 25 24 23 23 22 21 20 18 17 17 16 15 15 14 14 14 14 15 15 15 16 16 17 17 17 18 18 19 19 19 19 20 20 21 21 21 22 22 22 22 22 23 23 23
48 47 46 45 44 43 42 42 41 40 39 38 37 36 35 34 34 34 33 33 33 33 33 33 32 32 32 32 32 32 32 31 31 31 31 31 31 30 29 28 27 25 24 23 22 22 21 20 18 17 16 15 15 14 14 13 13 13 13 14 14 14 15 15 16 16 16 17 17 17 18 18 18 18 18 19 19 19 19 20 20 20 20 20 21 21
46 45 45 44 43 42 41 41 40 39 38 38 37 36 35 34 33 33 33 33 33 33 33 32 32 32 31 31 31 31 31 31 30 30 30 30 30 29 29 27 26 25 24 23 22 21 19 18 17 16 15 14 13 13 12 12 12 13 13 13 13 14 14 14 15 15 15 16 16 16 16 16 16 16 17 17 17 17 17 17 18 18 18 18 19 19
44 44 43 42 41 41 40 39 39 38 38 37 36 36 35 34 33 33 32 32 32 32 32 32 32 32 31 31 30 30 30 29 29 29 29 29 29 28 28 26 25 24 23 22 21 20 18 17 16 14 13 13 12 12 11 12 12 12 12 12 13 13 13 14 14 14 14 14 14 15 15 15 15 15 15 15 15 16 16 16 16 16 16 16 17 17
43 42 42 41 40 40 39 38 38 37 37 36 36 35 34 34 33 32 32 32 32 32 33 33 32 32 32 31 30 29 28 28 28 28 27 28 27 27 26 25 24 23 22 21 20 19 17 16 14 13 12 11 11 11 11 11 11 11 11 12 12 12 12 13 13 13 13 13 13 13 13 13 13 14 14 14 14 14 14 14 14 14 14 15 15 15
41 41 40 40 39 39 38 38 37 37 36 36 35 35 34 33 33 32 32 32 32 32 33 33 32 32 31 31 30 29 28 27 26 26 26 26 26 26 25 24 23 22 21 20 19 18 16 15 13 12 11 10 10 10 10 10 11 11 11 11 11 11 11 11 12 12 12 12 12 12 12 12 12 12 12 12 12 12 12 12 12 13 13 13 13 13
40 40 39 39 38 38 38 37 37 36 36 35 35 35 34 33 32 32 31 31 31 32 32 32 32 32 31 30 29 28 27 26 25 25 25 25 25 24 24 23 22 21 20 19 18 17 15 13 12 11 10 10 9 9 10 10 10 10 10 11 11 10 10 10 10 10 10 10 11 11 11 11 11 11 11 11 11 11 11 11 11 11 11 11 12 12
39 39 38 38 37 37 37 36 36 36 35 35 35 34 33 33 32 31 31 30 30 31 31 32 32 32 31 30 29 28 27 26 24 24 23 23 23 23 23 22 21 20 19 18 17 16 14 12 11 9 9 9 9 9 9 9 9 10 10 10 10 10 9 9 9 9 9 9 9 9 10 10 10 10 10 10 10 10 10 10 10 9 10 10 10 11
38 37 37 37 36 36 36 35 35 35 35 34 34 34 33 32 32 31 30 30 29 30 30 31 31 31 30 30 29 27 26 25 24 23 22 22 22 22 21 21 20 19 18 16 15 14 13 11 10 9 8 8 8 8 9 9 9 9 9 9 9 8 8 8 8 8 8 8 8 8 9 9 9 9 9 9 9 9 8 8 8 8 8 8 9 10
37 36 36 35 35 35 35 34 34 34 34 34 33 33 32 32 31 31 30 29 29 29 29 30 30 30 29 29 27 26 25 24 23 22 21 21 21 21 20 19 18 17 16 15 14 13 12 10 9 8 8 8 8 8 8 8 8 8 8 8 8 7 7 7 7 7 7 7 7 7 7 8 8 8 7 7 7 7 7 7 7 7 7 7 8 9
36 36 35 35 34 34 34 33 33 33 33 32 32 32 31 31 30 30 29 29 28 28 28 29 29 29 28 27 26 25 24 23 22 21 21 21 20 20 19 18 17 16 15 14 13 12 11 10 9 8 7 7 7 8 8 8 8 8 8 7 7 6 6 6 6 5 6 6 6 6 6 7 6 6 6 6 6 6 6 6 5 6 6 6 7 8
36 35 34 34 33 33 33 32 32 32 32 31 31 31 30 30 29 29 29 28 28 27 27 28 28 28 27 26 25 24 23 22 21 20 20 19 19 19 18 17 16 14 14 13 12 11 10 9 8 7 7 7 7 7 8 8 8 8 7 7 6 5 5 5 5 4 5 5 5 5 5 5 5 5 5 4 4 4 4 4 4 4 5 6 7 8
36 35 34 33 33 32 32 32 31 31 31 30 30 30 29 29 28 28 28 27 27 27 27 27 27 27 26 25 24 23 22 20 20 19 19 18 18 18 17 16 14 13 13 12 11 10 9 8 7 7 6 6 6 7 7 8 8 7 7 6 5 5 4 4 4 4 4 4 4 4 4 4 4 3 3 3 3 3 3 3 3 4 4 5 7 8
Wind_Direction
299 299 299 299 298 298 297 297 296 295 294 293 292 290 290 289 288 288 287 287 286 285 285 284 283 283 282 281 281 280 280 280 279 279 278 278 278 277 277 277 276 276 276 276 276 276 276 276 275 275 275 274 273 273 272 271 271 270 270 269 269 269 268 268 268 267 267 267 266 266 265 264 264 263 263 262 262 261 261 260 259 259 258 257 256 256
301 301 300 300 299 299 298 297 297 296 294 293 292 291 291 290 289 289 288 287 287 286 285 285 284 283 283 282 282 281 281 280 280 280 279 279 278 278 278 277 277 277 277 276 276 276 276 275 275 274 273 273 272 271 271 270 270 270 269 269 269 269 268 268 268 268 267 267 266 266 265 265 264 264 263 263 262 261 261 260 259 259 258 257 257 256
302 302 301 301 300 300 299 298 297 296 295 294 293 292 292 291 291 290 289 288 287 287 286 286 285 284 284 283 283 282 282 281 281 281 280 280 279 279 278 278 277 277 277 276 276 275 275 274 273 273 272 271 271 271 270 270 270 270 270 269 269 269 269 269 268 268 268 267 267 266 266 265 264 264 263 263 262 262 261 260 260 259 258 257 257 256
303 303 302 302 301 300 299 298 297 296 295 294 294 293 293 292 292 291 290 289 288 288 287 287 286 286 285 284 284 283 283 282 282 281 281 280 280 279 279 278 278 277 276 276 275 274 274 273 272 272 271 271 271 271 270 270 270 270 270 270 269 269 269 269 268 268 267 267 267 266 266 265 265 264 263 263 262 262 261 261 260 259 258 257 257 256
304 303 303 302 302 301 299 298 297 296 296 295 295 295 294 293 292 292 291 290 289 289 288 288 287 287 286 285 285 284 284 283 282 282 281 281 280 279 279 278 277 277 276 275 275 274 273 273 272 272 272 271 271 271 271 271 271 270 270 270 269 269 269 268 268 268 267 267 267 266 266 265 265 264 264 263 263 262 261 261 260 259 258 258 257 256
304 304 303 303 302 301 300 299 298 297 297 296 296 295 295 294 293 292 292 291 291 290 289 289 288 287 287 286 286 285 284 284 283 282 281 281 280 279 278 278 277 276 276 275 275 274 273 273 273 272 272 272 272 272 271 271 271 270 270 270 269 269 268 268 268 268 267 267 267 266 266 265 265 265 264 263 263 262 261 261 260 259 258 258 257 256
305 304 304 303 302 301 300 299 299 298 298 297 297 296 295 294 294 293 293 292 292 291 290 290 289 288 288 287 287 286 285 284 283 282 282 281 280 279 278 278 277 276 276 275 275 274 274 274 273 273 273 273 272 272 272 271 271 270 270 269 269 269 268 268 268 267 267 267 266 266 266 265 265 264 264 263 263 262 262 261 260 259 258 258 257 256
305 305 304 303 302 301 300 300 299 299 298 298 297 296 296 295 295 294 294 293 293 292 291 291 290 289 289 288 288 287 286 285 284 283 282 281 280 279 279 278 278 277 277 276 276 275 275 274 274 274 273 273 273 272 271 271 270 270 270 269 269 269 268 268 268 267 267 267 266 266 265 265 265 264 264 263 263 262 262 261 260 260 259 258 257 256
306 305 304 303 302 302 301 301 300 299 299 298 298 297 296 296 296 295 295 294 294 293 292 292 291 290 290 289 288 287 286 285 284 283 282 281 281 280 280 279 279 278 278 277 277 276 276 275 275 274 273 273 272 272 271 271 270 270 269 269 269 268 268 268 267 267 267 266 266 266 265 265 265 264 264 263 263 263 262 261 261 260 259 258 257 257
306 305 304 303 302 302 302 301 301 300 299 299 298 298 297 297 297 296 296 295 295 294 293 293 292 291 291 290 289 288 287 286 285 284 283 283 282 282 281 281 280 279 279 278 277 276 276 275 274 274 273 272 272 271 271 270 270 270 269 269 269 268 268 267 267 267 266 266 266 266 265 265 265 264 264 263 263 263 262 261 261 260 259 259 258 257
306 305 304 304 303 302 302 302 301 301 300 300 299 299 298 298 298 298 297 296 296 295 294 294 293 292 292 291 290 289 288 287 286 285 284 284 284 283 282 282 281 280 279 278 277 276 275 275 274 274 273 272 272 271 271 270 270 270 269 269 268 268 268 267 267 267 266 266 266 266 265 265 264 264 264 263 263 262 262 261 261 260 260 259 258 257
306 305 304 304 303 303 302 302 301 301 301 300 300 300 299 299 299 299 298 297 297 296 295 295 294 293 293 292 291 290 289 288 287 286 286 285 285 284 283 281 280 279 278 278 277 276 276 275 274 274 273 272 272 271 271 271 270 269 269 269 268 268 268 267 267 267 267 266 266 265 265 265 264 264 263 263 262 262 261 261 261 260 259 259 258 257
306 305 305 304 304 303 303 302 302 302 302 301 301 301 301 300 300 300 299 298 297 297 296 296 295 294 293 292 291 290 290 289 288 287 287 286 285 284 283 281 280 279 279 278 277 277 276 275 275 274 273 273 272 272 271 271 270 269 269 269 268 268 268 267 267 267 266 266 266 265 265 264 264 263 263 262 262 261 261 260 260 260 259 259 258 257
306 305 305 304 304 303 303 303 303 303 303 302 302 302 302 301 301 300 300 299 298 297 297 296 296 295 294 293 292 291 290 290 289 288 287 286 285 284 283 282 281 280 279 279 278 277 276 276 275 274 274 273 272 272 271 271 270 270 269 269 269 268 268 268 267 267 266 266 265 265 264 264 263 263 262 262 261 261 260 260 259 259 259 258 258 257
306 306 305 305 304 304 304 304 304 304 304 303 303 303 302 302 302 301 300 300 299 298 298 297 296 295 295 294 293 292 291 291 290 289 288 287 286 285 284 283 281 281 280 279 278 277 277 276 275 275 274 273 273 272 271 271 271 270 270 269 269 268 268 268 267 267 266 266 265 265 264 264 263 262 262 261 261 260 260 259 259 258 258 257 257 256
306 306 306 305 305 305 305 305 305 305 305 304 304 304 303 303 302 302 301 301 300 299 299 298 297 296 295 294 293 293 292 291 291 290 289 288 287 285 284 283 282 281 280 279 279 278 277 276 276 275 274 274 273 272 272 271 271 270 270 269 269 268 268 268 267 267 266 266 265 265 264 264 263 262 262 261 260 260 259 259 258 258 257 257 256 256
307 307 306 306 306 306 306 306 306 306 305 305 305 304 304 303 303 302 302 301 301 300 299 299 298 297 296 295 294 293 292 292 291 291 290 289 288 286 285 284 283 282 281 280 279 279 278 277 277 276 275 274 273 273 272 271 271 270 270 269 269 268 268 268 267 267 266 266 266 265 264 264 263 262 261 261 260 259 259 258 258 257 257 256 256 255
308 307 307 307 307 307 307 307 307 306 306 306 305 305 304 304 303 303 302 302 301 301 300 299 299 298 297 296 295 294 293 292 292 291 290 289 288 287 286 285 284 283 282 281 280 279 279 278 277 276 276 275 274 273 273 272 271 271 270 270 269 268 268 268 267 267 266 266 265 265 264 264 263 262 261 261 260 259 258 258 257 257 256 256 255 255
309 308 308 308 308 308 308 307 307 307 307 306 306 306 305 304 304 303 303 302 302 301 301 300 299 299 298 297 296 295 294 293 292 291 291 290 289 287 286 286 285 284 283 282 281 281 280 279 278 277 277 276 275 274 273 273 272 271 270 270 269 269 268 268 267 267 266 266 265 264 264 263 263 262 261 260 260 259 258 257 257 256 256 255 255 254
309 309 309 309 309 308 308 308 308 307 307 307 306 306 305 305 304 304 304 303 303 302 301 301 300 299 299 298 297 296 295 294 293 292 291 290 289 288 287 287 286 285 284 283 282 281 281 280 279 278 277 276 276 275 274 273 273 272 271 270 269 269 268 267 267 266 266 265 265 264 264 263 262 262 261 260 259 259 258 257 257 256 255 255 254 254
310 310 309 309 309 309 309 308 308 308 307 307 307 306 306 305 305 305 304 304 303 303 302 302 301 300 299 299 298 297 296 295 294 293 292 291 290 289 288 287 287 286 285 284 283 282 281 280 279 279 278 277 276 276 275 274 273 272 271 271 270 269 268 267 267 266 265 265 264 264 263 262 262 261 261 260 259 259 258 257 256 256 255 255 254 254
310 310 310 309 309 309 309 309 308 308 308 308 307 307 306 306 306 305 305 304 304 303 303 302 301 301 300 299 298 297 297 296 295 294 293 292 291 290 289 288 287 286 286 285 284 283 282 281 280 279 278 278 277 276 276 275 274 273 272 271 270 269 268 267 267 266 265 265 264 263 263 262 261 261 260 260 259 258 258 257 256 256 255 254 254 253
311 310 310 310 309 309 309 309 309 308 308 308 308 307 307 307 306 306 306 305 305 304 303 303 302 301 300 300 299 298 297 297 296 295 294 293 292 291 290 289 288 287 286 285 285 284 282 281 280 279 279 278 277 277 276 275 274 273 273 272 271 270 269 268 267 266 265 264 264 263 262 262 261 261 260 259 259 258 257 257 256 255 255 254 254 253
311 310 310 310 310 309 309 309 309 309 308 308 308 307 307 307 307 306 306 305 305 304 304 303 302 302 301 300 300 299 298 297 297 296 295 294 293 292 291 290 289 288 287 286 285 284 283 282 281 280 279 278 278 277 276 276 275 274 273 272 271 270 269 268 267 266 265 264 264 263 262 262 261 260 259 259 258 257 257 256 256 255 255 254 253 253
311 310 310 310 310 310 310 309 309 309 309 308 308 308 307 307 307 307 306 306 305 305 304 304 303 303 302 301 300 300 299 298 297 297 296 295 294 293 292 291 290 289 288 287 286 285 284 283 282 281 280 279 279 278 277 276 275 274 273 272 272 270 270 269 268 267 266 265 264 263 262 262 261 260 259 258 258 257 256 256 255 255 254 254 253 253
311 310 310 310 310 310 310 309 309 309 309 308 308 308 308 308 308 307 307 307 306 306 305 305 304 303 303 302 301 300 300 299 299 298 297 296 295 294 294 293 292 291 289 288 287 286 285 283 282 282 281 281 280 279 277 276 275 274 273 272 272 271 270 269 268 267 266 265 264 263 262 261 261 260 259 258 258 257 256 256 255 254 254 253 253 252
311 310 310 310 310 310 310 309 309 309 309 309 309 309 309 308 308 308 308 307 307 307 306 305 304 304 303 303 302 301 301 300 300 299 298 297 296 295 295 294 293 292 290 289 288 287 286 285 284 283 282 282 281 280 278 277 276 275 274 273 272 271 270 269 268 267 266 265 264 263 262 261 261 260 259 258 258 257 256 256 255 255 254 253 253 252
311 310 310 310 310 310 310 310 309 309 309 309 309 309 309 309 309 309 308 308 308 307 307 306 305 305 304 304 303 302 302 301 301 300 300 299 298 297 297 296 295 294 292 291 289 288 287 286 285 285 284 283 282 281 280 278 277 276 275 274 273 271 270 269 268 267 266 265 264 263 262 261 260 260 259 259 258 257 257 256 256 255 254 254 253 252
311 310 310 310 310 310 310 310 310 310 310 310 310 310 310 310 310 309 309 308 308 308 307 307 306 306 305 305 304 303 303 302 302 302 302 301 300 299 298 298 297 296 294 293 291 290 289 288 287 287 286 285 284 283 281 280 279 278 276 275 273 272 270 269 268 267 266 265 264 263 262 261 260 260 259 259 258 258 258 257 256 256 255 254 253 252
311 311 311 310 310 310 310 310 310 310 310 310 310 310 310 310 310 310 309 309 309 308 308 307 307 306 306 306 305 305 304 303 303 303 303 302 302 301 300 299 298 297 296 295 294 292 291 290 289 289 288 287 286 284 283 282 281 279 278 276 274 272 270 269 268 267 266 265 264 263 261 261 260 260 259 259 259 258 258 257 257 256 255 255 254 253
311 311 311 311 311 310 310 310 310 310 311 311 311 311 311 311 310 310 309 309 309 308 308 307 307 307 307 307 307 306 306 305 305 305 305 304 304 303 303 302 301 299 298 297 296 295 293 292 291 291 290 289 288 286 285 284 282 281 279 277 274 273 271 270 269 267 266 265 264 262 261 261 260 260 259 259 259 258 258 257 257 256 256 255 254 253
311 311 311 311 311 311 311 311 311 311 311 311 311 311 311 311 310 310 310 309 309 309 309 308 308 308 308 308 308 308 308 307 307 307 307 306 306 306 305 304 303 302 300 299 297 297 296 295 294 293 292 291 290 288 287 286 284 282 279 277 275 273 272 271 270 268 267 265 264 263 262 261 261 260 260 259 259 259 258 257 257 256 255 255 254 253
311 311 311 311 311 311 311 311 311 311 311 311 311 311 311 311 310 310 310 310 310 310 310 309 309 309 309 309 309 309 309 309 309 309 309 308 308 307 307 306 305 304 302 301 299 298 298 297 296 295 294 293 291 290 288 286 285 282 280 278 276 275 274 272 271 269 267 266 265 264 263 262 262 261 261 260 259 259 258 257 257 256 255 255 254 253
311 311 311 311 311 311 311 311 311 312 312 312 311 311 311 311 310 310 310 310 310 310 311 311 311 311 311 311 312 311 311 311 311 311 310 310 309 308 308 307 307 306 305 303 301 300 299 299 299 298 296 295 293 291 289 287 285 282 280 279 277 276 275 273 272 270 268 267 266 265 265 264 264 263 262 261 261 260 259 258 257 256 256 255 254 253
312 312 312 312 311 311 312 312 312 312 312 312 312 311 311 311 311 311 311 311 311 311 311 312 312 312 313 313 313 314 314 313 313 313 312 311 311 310 309 309 309 308 307 306 305 303 302 302 301 300 299 297 295 293 291 288 286 284 282 281 279 278 276 274 272 271 270 269 268 268 267 266 265 265 264 263 262 261 260 259 258 257 256 255 254 253
312 312 312 312 312 312 312 312 312 312 312 312 312 312 312 312 312 312 311 312 312 312 312 312 312 313 313 314 314 315 315 315 315 315 314 313 312 312 311 311 311 311 310 309 307 306 305 304 303 302 301 299 296 294 291 289 287 286 284 283 281 280 278 276 274 273 272 271 271 270 269 268 268 267 266 265 263 262 261 260 259 258 256 255 254 253
312 312 312 312 312 312 312 312 312 312 312 312 312 312 312 312 312 312 312 312 312 312 313 313 313 313 313 314 314 315 315 315 316 315 315 314 314 313 313 313 313 313 312 311 310 308 307 306 304 303 302 300 298 295 293 291 289 288 286 285 283 281 279 278 276 275 274 274 273 272 271 270 269 268 267 266 265 263 262 261 260 258 257 256 254 253
313 313 312 312 312 312 312 312 312 312 312 313 313 313 313 313 313 313 313 313 313 313 313 313 313 313 313 314 314 315 315 316 316 316 316 315 314 314 314 314 314 314 313 312 311 309 308 307 305 304 302 301 298 296 295 293 291 290 288 287 285 283 281 279 278 277 276 275 274 273 273 272 271 269 268 267 266 264 263 262 261 259 258 256 254 253
313 313 313 313 313 313 313 313 313 313 313 313 313 314 314 314 314 314 314 313 313 313 313 313 313 313 314 314 314 315 315 316 316 316 316 315 315 315 314 315 315 315 314 313 312 310 309 307 305 304 303 301 300 297 296 295 294 292 291 289 287 285 283 281 280 278 277 276 275 275 274 273 272 271 269 268 267 266 264 263 262 260 258 256 255 252
313 313 313 313 313 313 313 313 313 313 314 314 314 314 314 315 315 314 314 314 314 313 313 313 313 313 314 314 314 314 315 315 316 316 316 315 315 315 315 315 315 316 315 314 313 311 309 307 305 304 302 301 300 300 299 298 297 296 295 293 292 289 286 284 282 281 279 278 277 276 275 274 273 272 271 269 268 267 266 264 263 261 259 257 255 252
314 314 314 313 313 314 314 314 314 314 314 314 315 315 315 315 315 315 314 314 313 313 313 313 313 313 313 313 313 314 314 315 315 316 316 316 315 315 315 315 316 316 316 316 314 311 309 307 304 303 303 302 301 302 302 302 302 301 299 298 295 293 290 287 285 284 282 281 280 278 277 276 275 274 273 271 270 269 267 266 264 262 259 256 254 251
314 314 314 314 314 314 314 314 314 314 315 315 315 316 316 316 316 316 315 314 313 313 312 312 312 312 312 312 312 313 314 314 315 316 316 316 316 315 315 316 316 317 317 317 315 313 310 307 305 304 304 304 305 306 306 307 307 305 303 301 298 295 292 290 288 287 285 284 283 282 280 279 278 276 275 274 272 271 269 267 265 263 260 257 254 250
315 315 314 314 314 314 314 315 315 315 315 316 316 316 316 317 317 316 316 315 314 313 312 312 312 312 312 312 312 313 313 314 315 316 316 316 316 316 316 317 317 318 318 317 316 314 312 309 307 306 307 309 310 311 312 312 311 309 306 303 300 297 296 293 292 290 289 288 286 285 284 283 281 279 278 276 275 273 271 269 266 263 260 257 253 250
315 315 315 315 315 315 315 315 316 316 316 316 316 317 317 317 317 317 317 316 315 314 313 313 312 313 313 313 313 313 314 315 316 317 317 317 316 316 316 317 318 319 319 318 318 315 313 311 309 310 313 315 316 316 317 317 315 313 309 305 302 300 298 296 294 293 292 291 290 290 289 287 285 283 281 279 278 275 273 271 267 264 261 257 252 248
316 316 316 315 315 316 316 316 316 316 316 316 317 317 317 317 318 318 317 317 316 314 313 313 313 313 313 314 314 314 314 315 316 317 318 318 317 317 317 318 319 320 320 320 319 317 314 312 311 315 319 321 323 323 322 320 317 315 311 308 305 302 301 298 298 296 295 294 295 294 293 292 289 287 285 282 280 277 275 272 269 265 260 256 251 246
316 316 316 316 316 316 316 317 317 317 317 317 317 317 317 318 318 318 318 317 316 315 314 313 313 314 314 315 315 315 315 315 316 318 319 318 318 318 319 320 321 321 321 322 321 320 318 316 317 321 325 329 330 328 326 323 320 315 313 310 307 306 305 303 302 301 301 300 300 299 299 296 293 290 287 284 282 279 276 271 268 263 259 253 248 242
317 317 317 317 317 317 317 317 317 317 317 317 317 317 318 318 318 318 318 318 317 316 315 314 313 313 314 315 316 316 316 316 317 319 320 319 319 319 320 321 322 323 324 324 323 322 322 322 323 328 332 336 336 334 330 325 321 318 315 313 311 310 309 308 308 308 307 307 307 307 304 301 297 293 289 286 283 279 276 271 266 260 255 249 243 237
317 317 317 317 317 317 317 317 317 317 317 317 317 317 318 318 318 318 319 318 317 316 315 314 313 314 314 315 316 317 317 318 319 320 321 321 321 321 321 322 324 325 326 326 325 325 325 327 329 334 338 341 341 338 334 329 324 320 318 316 315 314 314 315 315 315 316 316 314 313 309 305 300 295 291 287 283 278 273 268 263 256 249 242 236 230
318 318 318 318 318 318 318 318 318 317 317 318 318 318 318 318 318 318 318 318 318 317 316 315 314 314 315 315 317 318 319 320 321 322 322 322 321 321 322 324 326 328 329 328 328 328 329 331 335 338 341 344 345 343 338 332 328 324 321 319 319 319 320 321 323 324 325 325 324 319 314 308 301 295 291 287 281 274 269 262 255 248 240 232 225 220
319 319 319 319 319 319 318 318 318 318 318 318 318 318 318 318 318 318 318 318 318 317 316 315 314 314 315 316 317 319 320 321 322 323 323 323 322 322 323 325 328 330 331 330 329 330 331 337 342 345 346 347 347 346 342 336 332 327 325 324 324 324 328 330 333 337 338 336 333 328 319 310 303 295 288 282 276 268 259 250 243 234 226 219 213 209
319 319 319 319 319 319 319 319 318 318 318 318 318 319 319 319 319 318 318 318 318 317 317 315 315 315 315 316 318 320 321 323 323 324 324 323 323 323 324 326 329 332 333 333 332 332 334 342 351 355 358 354 350 347 345 341 336 332 329 328 328 330 337 343 347 349 351 350 344 337 326 315 305 294 284 275 264 253 241 229 220 213 208 203 201 199
Height
10321 10317 10312 10308 10304 10299 10292 10284 10278 10274 10268 10259 10252 10246 10243 10239 10236 10232 10228 10224 10221 10216 10212 10209 10206 10204 10201 10199 10196 10193 10189 10185 10182 10179 10178 10176 10174 10173 10171 10169 10167 10165 10164 10163 10162 10162 10161 10160 10159 10158 10158 10156 10155 10154 10153 10153 10152 10151 10151 10151 10150 10150 10151 10151 10151 10152 10153 10154 10156 10158 10159 10161 10162 10163 10164 10166 10168 10171 10174 10176 10179 10182 10185 10188 10189 10192
10308 10303 10298 10293 10290 10286 10279 10270 10263 10257 10250 10243 10238 10233 10229 10226 10223 10219 10215 10211 10208 10204 10199 10196 10194 10191 10189 10186 10183 10180 10177 10173 10170 10168 10166 10164 10163 10161 10159 10158 10156 10154 10153 10153 10151 10151 10150 10149 10148 10146 10144 10143 10142 10141 10140 10139 10139 10139 10139 10139 10139 10139 10139 10139 10140 10141 10142 10143 10144 10146 10147 10148 10150 10151 10153 10154 10156 10158 10161 10164 10166 10169 10171 10174 10176 10178
10294 10290 10284 10278 10274 10270 10264 10256 10249 10241 10234 10229 10224 10220 10217 10213 10209 10206 10202 10198 10194 10191 10188 10184 10182 10179 10176 10174 10171 10168 10165 10162 10159 10157 10155 10153 10151 10149 10148 10146 10145 10144 10143 10141 10140 10139 10138 10136 10135 10134 10132 10131 10130 10129 10129 10129 10129 10128 10128 10128 10128 10128 10128 10129 10129 10130 10131 10132 10133 10134 10135 10136 10138 10139 10141 10143 10144 10146 10149 10151 10153 10156 10159 10161 10164 10166
10281 10276 10271 10264 10258 10253 10248 10241 10234 10228 10221 10216 10213 10209 10205 10201 10196 10193 10189 10186 10182 10178 10175 10173 10171 10168 10165 10163 10160 10158 10154 10151 10149 10147 10144 10143 10141 10139 10137 10136 10134 10133 10131 10129 10128 10127 10126 10124 10123 10122 10121 10120 10119 10119 10119 10119 10119 10119 10118 10118 10118 10118 10119 10119 10119 10119 10120 10121 10121 10123 10124 10125 10126 10128 10130 10131 10133 10135 10137 10139 10141 10144 10147 10149 10151 10154
10266 10262 10257 10251 10244 10238 10231 10226 10220 10214 10209 10205 10201 10198 10193 10188 10184 10180 10177 10174 10170 10167 10164 10162 10159 10157 10154 10151 10149 10147 10144 10141 10139 10136 10134 10132 10130 10128 10126 10124 10123 10121 10120 10118 10117 10116 10114 10113 10113 10111 10111 10110 10109 10109 10109 10109 10109 10109 10109 10109 10108 10108 10109 10109 10109 10109 10109 10111 10111 10112 10113 10115 10116 10118 10119 10121 10123 10124 10126 10128 10131 10133 10135 10138 10140 10141
10253 10248 10242 10238 10231 10224 10217 10211 10207 10203 10198 10194 10190 10186 10182 10177 10173 10169 10166 10162 10159 10156 10154 10151 10149 10146 10143 10141 10139 10137 10134 10131 10128 10126 10123 10121 10119 10117 10115 10113 10111 10110 10109 10108 10106 10106 10104 10104 10103 10103 10102 10101 10101 10101 10101 10101 10101 10100 10099 10099 10099 10099 10099 10099 10099 10099 10100 10101 10102 10103 10104 10105 10106 10108 10109 10111 10112 10114 10115 10117 10119 10121 10124 10126 10128 10130
10239 10234 10228 10223 10217 10211 10205 10199 10196 10192 10188 10183 10178 10174 10171 10167 10163 10159 10155 10151 10148 10146 10144 10141 10138 10135 10133 10131 10129 10128 10124 10121 10118 10115 10113 10110 10108 10106 10104 10103 10101 10100 10099 10098 10098 10096 10096 10094 10094 10094 10093 10093 10093 10093 10092 10091 10091 10090 10089 10089 10089 10089 10089 10089 10090 10091 10091 10091 10092 10093 10094 10095 10096 10098 10099 10100 10102 10103 10105 10106 10108 10111 10113 10114 10117 10119
10228 10222 10216 10209 10203 10198 10193 10189 10184 10181 10178 10173 10168 10163 10159 10156 10153 10150 10146 10141 10138 10136 10134 10131 10128 10125 10123 10121 10119 10118 10114 10111 10107 10104 10101 10099 10098 10096 10095 10094 10093 10092 10091 10090 10089 10088 10087 10086 10086 10085 10085 10084 10084 10084 10083 10083 10081 10081 10080 10080 10080 10080 10080 10081 10081 10081 10081 10082 10083 10084 10084 10086 10087 10088 10089 10091 10092 10093 10095 10096 10098 10099 10102 10104 10106 10108
10216 10209 10203 10197 10191 10186 10182 10178 10174 10170 10166 10162 10158 10153 10149 10147 10144 10141 10137 10132 10128 10126 10124 10122 10119 10116 10114 10112 10109 10107 10104 10100 10097 10094 10092 10090 10089 10088 10087 10086 10085 10084 10083 10082 10081 10079 10078 10078 10077 10076 10076 10076 10075 10074 10074 10073 10073 10072 10072 10071 10071 10071 10071 10071 10072 10072 10073 10073 10074 10075 10076 10077 10078 10079 10080 10081 10083 10084 10085 10086 10088 10089 10091 10094 10096 10098
10204 10198 10192 10186 10181 10176 10173 10168 10163 10159 10156 10152 10148 10144 10140 10138 10135 10132 10128 10123 10119 10116 10114 10112 10111 10108 10106 10103 10100 10097 10094 10090 10088 10086 10084 10083 10081 10081 10079 10078 10077 10076 10074 10073 10072 10071 10069 10069 10068 10068 10067 10066 10066 10065 10065 10064 10064 10064 10063 10063 10063 10063 10063 10063 10063 10063 10064 10064 10065 10066 10068 10069 10070 10071 10072 10073 10074 10075 10076 10078 10079 10080 10082 10084 10086 10088
10193 10187 10181 10176 10171 10167 10163 10158 10154 10150 10146 10142 10138 10134 10131 10128 10126 10124 10119 10115 10111 10107 10104 10103 10101 10100 10098 10094 10091 10087 10084 10081 10079 10078 10077 10076 10076 10074 10073 10070 10068 10066 10065 10064 10063 10062 10061 10061 10059 10059 10058 10058 10058 10057 10057 10057 10056 10056 10055 10055 10054 10054 10054 10054 10055 10055 10056 10057 10058 10059 10060 10061 10062 10063 10064 10065 10066 10067 10068 10069 10070 10071 10073 10074 10077 10079
10183 10177 10172 10168 10163 10158 10153 10149 10145 10142 10138 10134 10130 10126 10123 10119 10118 10114 10111 10107 10103 10099 10097 10094 10093 10091 10090 10086 10082 10078 10075 10073 10071 10071 10070 10069 10069 10067 10064 10061 10059 10057 10056 10054 10054 10053 10053 10053 10051 10051 10050 10049 10049 10049 10049 10049 10048 10048 10048 10047 10047 10046 10046 10047 10047 10048 10048 10049 10050 10051 10052 10053 10054 10055 10056 10057 10058 10059 10059 10061 10061 10063 10064 10066 10068 10069
10174 10169 10164 10159 10154 10149 10144 10141 10137 10133 10129 10126 10122 10118 10115 10111 10109 10106 10103 10099 10096 10093 10090 10087 10084 10083 10081 10078 10074 10070 10068 10066 10064 10064 10063 10062 10061 10058 10055 10053 10050 10049 10048 10047 10046 10045 10045 10044 10044 10043 10043 10042 10042 10042 10041 10041 10041 10040 10040 10039 10039 10039 10039 10039 10040 10040 10041 10041 10042 10043 10044 10045 10046 10047 10048 10049 10050 10051 10051 10053 10053 10054 10056 10058 10059 10061
10166 10161 10156 10151 10146 10141 10136 10133 10129 10126 10121 10118 10114 10111 10108 10104 10101 10098 10094 10091 10088 10085 10083 10080 10078 10076 10074 10071 10067 10063 10061 10058 10057 10056 10055 10054 10053 10050 10047 10044 10043 10042 10041 10040 10039 10038 10037 10036 10036 10036 10035 10035 10034 10034 10034 10033 10033 10033 10033 10033 10033 10033 10033 10033 10033 10033 10033 10034 10034 10036 10036 10038 10039 10039 10041 10041 10043 10043 10044 10044 10045 10046 10048 10049 10051 10053
10158 10152 10147 10142 10138 10133 10128 10125 10122 10118 10114 10110 10106 10103 10100 10097 10094 10091 10088 10084 10081 10078 10075 10073 10070 10068 10066 10064 10060 10056 10054 10051 10049 10048 10048 10046 10044 10043 10040 10038 10036 10034 10034 10033 10031 10030 10029 10029 10029 10028 10028 10028 10028 10027 10027 10026 10026 10026 10026 10026 10026 10026 10026 10025 10025 10025 10026 10026 10027 10028 10029 10030 10031 10033 10033 10034 10035 10036 10036 10037 10038 10039 10039 10041 10043 10044
10148 10143 10139 10134 10129 10124 10121 10117 10114 10111 10106 10103 10099 10096 10093 10090 10086 10083 10080 10077 10074 10071 10068 10065 10063 10061 10059 10057 10054 10051 10048 10044 10043 10041 10040 10039 10037 10035 10033 10030 10028 10028 10027 10026 10025 10023 10023 10022 10022 10021 10021 10021 10021 10021 10020 10020 10020 10019 10019 10019 10019 10019 10019 10018 10018 10019 10019 10019 10020 10021 10022 10023 10024 10025 10026 10026 10028 10028 10029 10030 10031 10031 10032 10033 10034 10036
10140 10134 10130 10126 10122 10117 10113 10109 10106 10103 10099 10095 10091 10088 10086 10083 10079 10076 10073 10071 10068 10064 10061 10058 10056 10053 10051 10049 10047 10045 10042 10039 10036 10035 10034 10031 10029 10028 10026 10024 10022 10021 10021 10020 10019 10018 10016 10016 10015 10015 10014 10014 10014 10014 10014 10014 10014 10014 10013 10013 10013 10013 10013 10013 10013 10013 10013 10013 10014 10014 10015 10016 10018 10018 10019 10020 10021 10021 10022 10023 10023 10024 10025 10026 10027 10028
10131 10126 10121 10118 10114 10109 10105 10101 10098 10096 10092 10088 10084 10081 10078 10076 10073 10070 10068 10064 10061 10058 10054 10051 10049 10047 10044 10041 10039 10038 10036 10034 10031 10029 10028 10025 10023 10021 10019 10018 10016 10015 10014 10013 10013 10011 10011 10009 10009 10009 10008 10008 10008 10008 10008 10008 10008 10008 10008 10007 10007 10007 10007 10007 10007 10007 10008 10008 10008 10008 10009 10010 10011 10011 10013 10013 10014 10014 10015 10016 10016 10017 10018 10019 10019 10021
10123 10118 10113 10110 10106 10102 10098 10094 10091 10088 10085 10081 10078 10074 10071 10068 10066 10064 10061 10058 10055 10052 10049 10046 10043 10040 10038 10035 10032 10030 10029 10028 10026 10023 10022 10019 10017 10014 10013 10011 10010 10009 10009 10008 10007 10006 10005 10004 10003 10003 10003 10002 10001 10001 10001 10002 10002 10002 10002 10002 10002 10001 10001 10001 10002 10002 10002 10003 10003 10003 10003 10004 10004 10005 10006 10007 10007 10008 10008 10009 10009 10010 10011 10011 10013 10013
10114 10109 10106 10102 10099 10094 10091 10087 10084 10081 10078 10075 10072 10068 10065 10062 10059 10057 10054 10052 10049 10046 10043 10040 10036 10033 10031 10029 10026 10024 10023 10021 10019 10018 10016 10014 10012 10009 10008 10006 10005 10004 10004 10003 10002 10001 9999 9999 9998 9998 9997 9996 9996 9996 9996 9996 9996 9996 9996 9996 9996 9996 9996 9996 9997 9997 9997 9998 9998 9998 9998 9998 9999 9999 9999 10000 10001 10001 10002 10003 10003 10003 10004 10004 10006 10006
10107 10102 10098 10094 10091 10088 10084 10080 10077 10074 10072 10069 10066 10063 10059 10056 10053 10051 10048 10046 10043 10040 10038 10034 10031 10028 10026 10023 10020 10018 10016 10015 10014 10012 10011 10009 10007 10005 10003 10002 10000 9999 9999 9998 9997 9996 9995 9994 9993 9993 9992 9991 9991 9991 9991 9991 9991 9991 9991 9991 9991 9992 9992 9992 9992 9992 9992 9993 9993 9993 9993 9993 9993 9993 9994 9994 9994 9995 9995 9996 9996 9997 9998 9998 9999 9999
10100 10096 10091 10088 10084 10081 10078 10074 10071 10068 10065 10063 10059 10056 10053 10049 10047 10044 10042 10040 10038 10034 10032 10029 10026 10023 10021 10018 10015 10013 10011 10009 10008 10007 10006 10004 10002 10000 9999 9998 9996 9995 9994 9993 9993 9991 9990 9989 9989 9988 9988 9987 9986 9986 9986 9986 9986 9986 9986 9986 9986 9987 9987 9987 9987 9987 9988 9988 9988 9988 9988 9988 9988 9988 9988 9988 9988 9989 9989 9989 9990 9991 9991 9991 9993 9993
10093 10089 10084 10081 10078 10074 10071 10068 10064 10061 10059 10056 10053 10049 10046 10044 10041 10039 10036 10034 10032 10029 10026 10024 10021 10018 10016 10013 10010 10008 10006 10004 10003 10002 10001 9999 9997 9996 9994 9993 9992 9991 9990 9989 9988 9987 9986 9985 9984 9984 9983 9983 9983 9983 9982 9982 9981 9981 9981 9982 9982 9982 9983 9983 9983 9983 9983 9983 9983 9982 9982 9982 9982 9982 9982 9982 9983 9983 9983 9983 9983 9984 9984 9985 9986 9987
10086 10083 10079 10074 10071 10068 10065 10062 10059 10055 10052 10049 10046 10044 10041 10039 10036 10033 10031 10029 10026 10024 10021 10019 10016 10014 10011 10009 10006 10004 10001 10000 9999 9998 9996 9994 9993 9991 9990 9989 9988 9987 9986 9985 9984 9983 9981 9981 9980 9980 9979 9979 9979 9979 9978 9978 9978 9978 9978 9978 9978 9978 9978 9978 9978 9978 9978 9978 9977 9977 9977 9977 9977 9977 9976 9976 9976 9976 9977 9977 9978 9978 9978 9979 9980 9981
10081 10076 10073 10069 10066 10062 10059 10056 10053 10049 10046 10043 10041 10038 10036 10034 10031 10028 10026 10024 10021 10019 10017 10014 10013 10009 10007 10005 10002 9999 9998 9996 9995 9994 9993 9991 9989 9988 9986 9986 9984 9983 9982 9981 9981 9979 9978 9977 9976 9976 9976 9976 9975 9975 9974 9974 9974 9974 9974 9973 9973 9973 9973 9973 9973 9973 9973 9973 9973 9972 9972 9972 9971 9971 9971 9971 9971 9971 9971 9972 9972 9973 9973 9974 9974 9975
10075 10071 10068 10064 10060 10057 10054 10051 10048 10044 10041 10038 10036 10033 10031 10028 10026 10023 10021 10019 10016 10014 10012 10010 10008 10006 10004 10001 9999 9996 9994 9993 9991 9990 9989 9988 9986 9984 9983 9982 9981 9979 9978 9978 9978 9976 9974 9973 9973 9973 9973 9972 9972 9971 9971 9971 9971 9970 9970 9970 9970 9969 9969 9969 9969 9969 9968 9968 9968 9968 9967 9966 9966 9966 9966 9966 9965 9966 9966 9966 9966 9967 9968 9968 9969 9969
10069 10066 10062 10059 10055 10052 10049 10046 10043 10039 10036 10034 10031 10028 10026 10024 10021 10019 10016 10014 10012 10010 10008 10006 10004 10002 10000 9998 9996 9993 9991 9989 9988 9986 9986 9985 9983 9981 9980 9979 9978 9977 9976 9974 9974 9973 9971 9970 9969 9969 9969 9969 9969 9968 9968 9968 9967 9967 9967 9966 9966 9966 9966 9965 9964 9964 9964 9963 9963 9963 9962 9961 9961 9961 9960 9960 9960 9961 9961 9961 9961 9962 9963 9963 9964 9964
10064 10061 10057 10054 10050 10047 10044 10041 10038 10035 10032 10029 10026 10024 10021 10019 10017 10014 10011 10009 10008 10006 10004 10002 10000 9998 9996 9994 9993 9991 9989 9986 9984 9983 9983 9982 9980 9979 9978 9976 9975 9974 9973 9971 9971 9970 9969 9968 9966 9966 9966 9966 9966 9965 9964 9964 9964 9964 9963 9963 9963 9962 9962 9961 9961 9960 9959 9959 9958 9958 9958 9957 9956 9956 9956 9956 9956 9956 9956 9957 9957 9958 9958 9958 9959 9959
10059 10055 10052 10049 10046 10043 10039 10036 10033 10030 10028 10025 10022 10019 10017 10015 10013 10010 10008 10006 10004 10003 10000 9998 9996 9994 9993 9991 9989 9988 9986 9984 9982 9981 9980 9979 9978 9976 9975 9974 9973 9971 9970 9968 9968 9967 9966 9965 9964 9963 9963 9963 9963 9962 9962 9961 9961 9961 9961 9960 9959 9959 9958 9957 9956 9956 9956 9955 9954 9954 9953 9953 9952 9952 9951 9951 9951 9952 9952 9953 9953 9953 9953 9954 9954 9955
10053 10050 10047 10044 10041 10038 10034 10031 10029 10026 10023 10021 10018 10016 10013 10011 10009 10006 10004 10002 10001 9999 9997 9995 9993 9992 9990 9988 9986 9984 9983 9981 9980 9979 9978 9976 9974 9974 9973 9972 9971 9969 9968 9966 9964 9964 9963 9963 9962 9961 9961 9961 9961 9959 9959 9959 9958 9958 9957 9956 9956 9955 9954 9953 9953 9953 9952 9951 9951 9950 9949 9949 9948 9948 9948 9948 9948 9948 9948 9948 9949 9949 9949 9950 9950 9951
10048 10045 10042 10039 10036 10033 10030 10027 10024 10022 10019 10017 10014 10012 10009 10007 10005 10003 10001 9999 9998 9996 9994 9992 9990 9989 9988 9986 9984 9982 9979 9978 9978 9976 9976 9974 9973 9971 9971 9969 9969 9968 9966 9965 9963 9961 9960 9960 9959 9959 9959 9958 9958 9957 9956 9956 9956 9955 9954 9953 9952 9951 9951 9950 9949 9949 9948 9948 9947 9946 9945 9945 9944 9944 9944 9944 9944 9944 9944 9944 9945 9945 9945 9946 9946 9947
10043 10040 10037 10034 10031 10029 10026 10023 10021 10018 10016 10013 10011 10009 10006 10004 10002 10000 9998 9996 9994 9993 9991 9989 9988 9986 9985 9984 9983 9981 9978 9976 9975 9974 9973 9972 9970 9969 9968 9968 9966 9965 9964 9963 9962 9960 9958 9957 9957 9957 9956 9956 9955 9955 9954 9954 9953 9952 9951 9950 9949 9948 9948 9947 9946 9946 9945 9944 9943 9943 9942 9941 9941 9941 9941 9941 9941 9941 9941 9941 9941 9941 9941 9942 9942 9943
10038 10036 10033 10030 10027 10024 10022 10019 10017 10014 10012 10010 10008 10006 10003 10001 9999 9997 9995 9993 9992 9990 9988 9986 9984 9983 9982 9981 9980 9979 9977 9975 9973 9972 9971 9970 9968 9967 9966 9965 9964 9963 9962 9961 9960 9958 9957 9955 9954 9954 9954 9954 9953 9953 9952 9951 9950 9949 9948 9947 9946 9945 9945 9944 9943 9943 9941 9941 9939 9939 9939 9938 9938 9938 9938 9938 9938 9938 9938 9938 9938 9938 9938 9938 9939 9939
10034 10031 10029 10026 10023 10021 10018 10016 10013 10011 10009 10007 10004 10003 10000 9998 9996 9994 9993 9991 9989 9988 9986 9984 9982 9980 9979 9978 9977 9976 9975 9973 9972 9971 9969 9968 9967 9965 9964 9963 9962 9961 9960 9959 9958 9956 9955 9954 9953 9953 9952 9951 9951 9950 9949 9949 9948 9946 9946 9944 9944 9943 9942 9941 9940 9939 9938 9938 9937 9936 9936 9936 9936 9935 9935 9935 9934 9934 9934 9934 9934 9934 9935 9935 9936 9936
10031 10028 10025 10023 10019 10017 10014 10013 10010 10008 10006 10004 10001 9999 9998 9996 9994 9992 9990 9988 9987 9985 9984 9982 9980 9979 9977 9976 9974 9973 9972 9971 9970 9969 9968 9967 9965 9963 9962 9961 9960 9959 9958 9957 9956 9954 9953 9952 9951 9951 9950 9949 9949 9948 9947 9946 9945 9944 9943 9943 9942 9941 9939 9938 9938 9936 9936 9935 9934 9934 9933 9933 9933 9933 9932 9932 9932 9931 9931 9931 9931 9932 9932 9933 9933 9933
10027 10024 10021 10019 10016 10014 10011 10009 10007 10005 10003 10001 9999 9997 9994 9993 9991 9989 9988 9986 9984 9983 9981 9979 9978 9977 9976 9974 9973 9971 9969 9968 9968 9967 9966 9964 9963 9961 9960 9959 9958 9957 9956 9954 9954 9953 9952 9951 9950 9949 9948 9948 9946 9946 9945 9944 9943 9943 9941 9941 9939 9938 9937 9936 9935 9934 9933 9933 9932 9931 9931 9930 9930 9929 9929 9929 9929 9929 9929 9929 9929 9929 9929 9930 9930 9931
10023 10021 10018 10015 10013 10011 10009 10006 10004 10002 10000 9998 9996 9994 9993 9991 9988 9986 9985 9983 9981 9980 9979 9977 9976 9974 9973 9973 9971 9969 9968 9967 9966 9964 9963 9963 9961 9960 9958 9957 9956 9956 9954 9953 9952 9951 9950 9949 9948 9947 9946 9946 9944 9943 9943 9942 9941 9940 9939 9938 9937 9936 9934 9934 9933 9932 9931 9930 9929 9929 9928 9928 9928 9928 9927 9927 9927 9927 9926 9926 9926 9926 9927 9927 9928 9928
10019 10017 10014 10012 10009 10008 10006 10003 10001 9999 9998 9996 9994 9992 9990 9988 9986 9984 9983 9981 9979 9978 9976 9975 9973 9972 9971 9970 9969 9968 9967 9965 9964 9963 9961 9960 9959 9958 9957 9956 9954 9954 9953 9952 9951 9949 9948 9948 9946 9945 9944 9944 9943 9942 9941 9940 9939 9938 9937 9936 9935 9934 9933 9931 9931 9930 9929 9928 9928 9927 9926 9926 9926 9925 9925 9924 9924 9924 9924 9924 9924 9924 9924 9925 9925 9926
10016 10014 10011 10009 10006 10004 10003 10000 9998 9996 9994 9993 9991 9989 9988 9986 9984 9983 9981 9979 9977 9976 9974 9973 9971 9970 9969 9968 9967 9966 9964 9964 9963 9961 9959 9958 9958 9956 9955 9954 9953 9952 9951 9950 9949 9948 9947 9946 9945 9944 9943 9942 9941 9940 9939 9938 9938 9936 9935 9934 9933 9932 9931 9930 9929 9928 9927 9926 9926 9925 9924 9924 9924 9923 9923 9923 9922 9922 9922 9922 9922 9923 9923 9923 9923 9923
10013 10011 10008 10006 10004 10001 9999 9998 9995 9993 9991 9990 9988 9987 9985 9984 9982 9981 9979 9977 9975 9974 9973 9971 9970 9969 9968 9966 9964 9964 9963 9961 9961 9959 9958 9956 9956 9954 9954 9952 9951 9950 9949 9949 9948 9947 9946 9944 9943 9943 9942 9941 9939 9938 9938 9937 9936 9934 9934 9933 9931 9930 9929 9928 9928 9926 9926 9924 9924 9923 9923 9923 9922 9921 9921 9921 9920 9920 9920 9920 9921 9921 9921 9921 9921 9921
10010 10008 10005 10003 10001 9999 9996 9994 9993 9991 9989 9987 9986 9984 9983 9981 9980 9978 9977 9975 9974 9972 9971 9969 9968 9967 9966 9965 9964 9962 9961 9959 9958 9958 9956 9955 9954 9953 9952 9951 9949 9949 9948 9947 9946 9945 9944 9943 9942 9941 9940 9939 9938 9938 9936 9935 9934 9933 9933 9931 9929 9928 9928 9927 9926 9925 9924 9924 9923 9923 9922 9921 9921 9920 9919 9919 9919 9919 9919 9919 9919 9919 9919 9919 9919 9919
10007 10004 10002 10000 9998 9996 9994 9992 9990 9988 9986 9985 9983 9981 9980 9979 9978 9976 9974 9973 9972 9970 9969 9968 9966 9965 9964 9964 9963 9961 9959 9958 9957 9956 9954 9953 9952 9951 9950 9949 9948 9948 9946 9946 9944 9944 9943 9942 9941 9940 9939 9938 9937 9936 9935 9934 9933 9932 9931 9930 9929 9928 9927 9926 9925 9924 9923 9923 9922 9921 9921 9920 9919 9919 9918 9918 9917 9917 9918 9918 9918 9918 9917 9917 9917 9918
10004 10002 9999 9998 9995 9993 9991 9989 9988 9986 9984 9983 9981 9979 9978 9976 9975 9974 9973 9971 9969 9968 9966 9965 9964 9963 9963 9961 9961 9959 9958 9957 9956 9954 9953 9952 9951 9949 9948 9948 9947 9946 9945 9944 9943 9942 9941 9941 9939 9939 9938 9937 9936 9935 9934 9933 9932 9931 9930 9929 9928 9926 9925 9924 9924 9923 9923 9922 9921 9921 9920 9919 9919 9918 9918 9917 9916 9916 9916 9916 9916 9916 9916 9916 9916 9917
10001 9999 9997 9995 9993 9991 9989 9987 9986 9984 9982 9980 9979 9977 9976 9974 9973 9972 9970 9969 9968 9966 9964 9963 9962 9961 9960 9959 9959 9958 9956 9955 9954 9953 9951 9950 9949 9948 9947 9946 9946 9944 9944 9943 9941 9941 9939 9939 9938 9938 9936 9936 9935 9934 9933 9931 9931 9929 9929 9928 9927 9926 9925 9924 9923 9923 9921 9921 9920 9920 9919 9919 9918 9918 9917 9916 9916 9916 9916 9915 9915 9915 9916 9916 9916 9916
9999 9996 9994 9993 9990 9988 9986 9984 9983 9981 9979 9978 9976 9975 9974 9973 9971 9970 9969 9967 9966 9964 9963 9961 9960 9959 9958 9958 9956 9956 9955 9954 9953 9951 9950 9949 9948 9947 9946 9945 9944 9943 9943 9941 9941 9939 9939 9938 9936 9936 9936 9935 9934 9933 9932 9931 9929 9929 9928 9927 9926 9926 9925 9924 9923 9922 9921 9920 9919 9919 9919 9919 9918 9917 9916 9916 9916 9915 9915 9915 9915 9914 9915 9915 9916 9916
9996 9994 9992 9990 9988 9986 9984 9983 9981 9979 9978 9976 9974 9973 9971 9970 9969 9968 9967 9966 9964 9963 9961 9959 9958 9957 9956 9955 9955 9954 9953 9952 9951 9949 9949 9948 9946 9946 9944 9944 9943 9942 9941 9940 9939 9939 9938 9937 9936 9935 9934 9934 9933 9932 9931 9930 9929 9928 9927 9926 9926 9924 9924 9923 9923 9922 9921 9920 9919 9919 9919 9918 9918 9917 9916 9916 9916 9915 9915 9915 9915 9914 9915 9915 9916 9916
9994 9992 9990 9988 9986 9984 9982 9980 9979 9977 9975 9974 9973 9971 9969 9968 9967 9966 9965 9964 9963 9961 9959 9958 9957 9956 9954 9954 9953 9953 9951 9950 9949 9948 9948 9946 9945 9944 9943 9943 9942 9941 9940 9939 9938 9938 9937 9936 9935 9934 9933 9933 9932 9931 9931 9929 9929 9928 9926 9926 9924 9924 9923 9923 9922 9921 9921 9920 9919 9919 9919 9918 9918 9917 9916 9916 9916 9916 9916 9915 9915 9915 9915 9915 9915 9916
9991 9989 9988 9986 9984 9982 9980 9978 9976 9975 9973 9972 9971 9969 9968 9966 9966 9964 9963 9962 9961 9959 9958 9957 9955 9954 9953 9953 9952 9951 9950 9949 9948 9947 9946 9945 9944 9943 9942 9941 9941 9940 9939 9938 9938 9937 9936 9935 9934 9933 9933 9932 9931 9930 9929 9929 9928 9927 9926 9925 9924 9924 9923 9922 9922 9921 9921 9920 9920 9919 9919 9918 9918 9917 9917 9916 9916 9916 9916 9916 9915 9915 9915 9915 9916 9916
9989 9987 9985 9983 9982 9980 9978 9976 9974 9973 9972 9970 9969 9968 9966 9965 9964 9963 9961 9960 9959 9958 9957 9955 9954 9953 9952 9951 9951 9950 9949 9948 9947 9946 9944 9944 9943 9942 9941 9941 9939 9939 9938 9938 9937 9936 9935 9934 9934 9933 9932 9931 9931 9929 9929 9928 9927 9926 9926 9924 9924 9923 9923 9922 9921 9921 9921 9920 9919 9919 9919 9919 9919 9918 9918 9917 9916 9916 9916 9916 9916 9916 9916 9916 9916 9916
9986 9984 9983 9981 9979 9978 9976 9974 9973 9971 9970 9969 9968 9966 9965 9964 9963 9961 9960 9959 9958 9956 9955 9954 9953 9951 9951 9950 9949 9949 9948 9947 9946 9944 9944 9943 9942 9941 9940 9939 9939 9938 9937 9936 9936 9935 9934 9934 9933 9932 9931 9931 9930 9929 9929 9928 9927 9926 9925 9924 9924 9923 9923 9922 9921 9921 9921 9920 9919 9919 9919 9919 9919 9919 9918 9918 9918 9917 9917 9917 9917 9917 9917 9917 9917 9918
9984 9982 9981 9979 9978 9976 9974 9973 9971 9969 9968 9967 9966 9964 9963 9963 9961 9960 9959 9958 9956 9955 9954 9953 9951 9950 9949 9949 9948 9948 9947 9946 9945 9944 9943 9942 9941 9940 9939 9938 9938 9937 9936 9936 9935 9934 9933 9933 9932 9931 9931 9931 9930 9929 9929 9928 9927 9926 9925 9924 9924 9924 9923 9922 9921 9921 9921 9920 9920 9919 9919 9919 9919 9919 9919 9919 9918 9918 9917 9917 9918 9918 9918 9918 9918 9919